Regional Weather Roundup
Issued by NWS

Home | Current Version | Previous Version | Text Only | Print | Product List | Glossary Off
Versions: 1 2 3 4 5 6 7 8 9 10 11 12 13 14 15 16 17 18 19 20 21 22 23 24 25 26 27 28 29 30 31 32 33 34 35 36 37 38 39 40 41 42 43 44 45 46 47 48 49 50

000
ASUS43 KLSX 181707
RWRMO

WEATHER SUMMARY FOR MISSOURI
NATIONAL WEATHER SERVICE SPRINGFIELD MO
1200 PM CDT FRI AUG 18 2017

NOTE: "FAIR" INDICATES FEW OR NO CLOUDS BELOW 12,000 FEET WITH NO
       SIGNIFICANT WEATHER AND/OR OBSTRUCTIONS TO VISIBILITY.
       CURRENT SKY AND/OR WEATHER CONDITIONS ARE NOT AVAILABLE FOR
       CHILLICOTHE AND FARMINGTON.

MOZ001>031-035>038-043-044-053-054-181800-
...NORTHERN AND WESTERN MISSOURI...

CITY           SKY/WX    TMP DP  RH WIND       PRES   REMARKS
KANSAS CTY INT CLOUDY    81  67  62 SW14      29.96S
KANSAS C DTWN  CLOUDY    80  66  62 SW7       29.96S
LEE`S SUMMIT   CLOUDY    75  65  70 SW10      29.98F
ST JOSEPH      CLOUDY    81  69  67 SW10      29.93F
CHILLICOTHE      N/A     82  67  60 CALM      29.95R
KIRKSVILLE     CLOUDY    82  60  47 SE6       29.97S

$$
MOZ066>068-077>081-088>096-101>105-181800-
...SOUTHWEST MISSOURI...

CITY           SKY/WX    TMP DP  RH WIND       PRES   REMARKS
SPRINGFIELD    MOSUNNY   79  73  82 S7        30.03F
JOPLIN         PTSUNNY   82  77  84 SW7       30.02F HX  90
BRANSON        PTSUNNY   81  72  74 SW5       30.06F

$$
MOZ032>034-039>042-045>050-055>058-069>072-181800-
...CENTRAL MISSOURI...

CITY           SKY/WX    TMP DP  RH WIND       PRES   REMARKS
COLUMBIA       SUNNY     84  65  52 SW7       29.99S
JEFFERSON CITY SUNNY     82  69  64 E3        29.98S
ROLLA          CLOUDY    81  64  56 W6        30.03S
SEDALIA        CLOUDY    80  68  66 SW8       30.01R
WHITEMAN AFB   CLOUDY    78  67  69 W13       29.99R
WARRENSBURG    PTSUNNY   73  64  73 SW8       29.99R
OSAGE BEACH    CLOUDY    78  66  66 SW6       30.01F

$$
MOZ051-052-059>065-181800-
...EAST CENTRAL MISSOURI...

CITY           SKY/WX    TMP DP  RH WIND       PRES   REMARKS
ST LOUIS INTL  MOSUNNY   84  63  49 NW7       29.98F
SPIRIT OF STL  MOSUNNY   82  64  54 S6        29.97F
ST CHARLES     SUNNY     81  63  54 NW7       29.97F

$$
MOZ072>076-082>087-097>100-106>115-181800-
...SOUTH CENTRAL AND SOUTHEAST MISSOURI...

CITY           SKY/WX    TMP DP  RH WIND       PRES   REMARKS
CAPE GIRARDEAU SUNNY     82  64  54 W3        30.00F
FARMINGTON     SUNNY     81  63  54 CALM      30.03S
POPLAR BLUFF     N/A     85  67  54 W6        30.01S
WEST PLAINS    SUNNY     83  57  41 W6        30.06F

$$



USA.gov is the U.S. government's official web portal to all federal, state and local government web resources and services.